Hourly Data Report for October 04, 2013

All times are specified in Local Standard Time (LST). Add 1 hour to adjust for Daylight Saving Time where and when it is observed.

KUGAARUK CLIMATE
NUNAVUT

68°32'15.060" N
89°47'47.020" W
15.80 m
2303094
71407
NBB

Download Data

Hourly Data (October 2013)
Hourly Data Report for October 4, 2013
Temp Definition
°C
Dew Point Temp Definition
°C
Rel Hum Definition
%
Wind Dir Definition
10's deg

Wind Spd Definition
km/h
Visibility Definition
km
Stn Press Definition
kPa
Hmdx Definition


Wind Chill Definition


Weather Definition


TIME
00:00 -4.5 -8.2 75 35 15   102.55   -10 LegendNANA
01:00 -4.5 -8.4 74 36 19   102.57   -11 LegendNANA
02:00 -4.6 -8.5 74 36 13   102.60   -10 LegendNANA
03:00 -4.6 -8.7 73 34 13   102.65   -10 LegendNANA
04:00 -4.6 -9.0 71 34 13   102.68   -10 LegendNANA
05:00 -4.8 -9.3 71 35 11   102.70   -9 LegendNANA
06:00 -4.6 -9.0 71 32 4   102.69   -6 LegendNANA
07:00 -4.5 -9.2 70 1 11   102.67   -9 LegendNANA
08:00 -4.6 -8.9 72 36 15   102.66   -10 LegendNANA
09:00 -4.7 -9.4 70 34 6   102.68   -7 LegendNANA
10:00 -4.5 -9.4 69 30 6   102.67   -7 LegendNANA
11:00 -4.3 -8.9 70 28 9   102.67   -8 LegendNANA
12:00 -4.4 -9.0 70 31 7   102.69   -8 LegendNANA
13:00 -4.3 -8.9 70 30 6   102.67   -7 LegendNANA
14:00 -4.5 -9.2 70 30 4   102.64   -6 LegendNANA
15:00 -4.5 -9.2 70 28 4   102.59   -6 LegendNANA
16:00 -4.6 -9.1 71 27 4   102.58   -6 LegendNANA
17:00 -4.7 -8.9 72   0   102.56     LegendNANA
18:00 -4.7 -8.7 74 21 2   102.53   -6 LegendNANA
19:00 -4.7 -8.7 74 17 2   102.48   -6 LegendNANA
20:00 -4.5 -8.9 71 19 7   102.45   -8 LegendNANA
21:00 -4.8 -7.8 79 22 11   102.41   -9 LegendNANA
22:00 -5.1 -7.9 81 22 11   102.37   -10 LegendNANA
23:00 -5.0 -7.6 82 21 7   102.35   -8 LegendNANA

Notes on Data Quality.

Legend

  • E = Estimated
  • M = Missing
  • NA = Not Available
  • ‡ = Partner data that is not subject to review by the National Climate Archives
Date modified: